This demonstration page uses our WeatherBlox Daily Observations layout. Learn more.

Left ArrowRight Arrow

Hourly Observations for June 1, 2017

Temp ( °F °C ) Dew Point ( °F °C ) Humidity (%) Winds ( mph kmh ) Pressure ( in mb ) Visibility ( mi km ) Precip ( " mm )
12:53 am 00:53 Clear 70 21.1 69 20.6 97 97 SSW 5 7 30.08 1019 10 16 0.00 0.00
1:53 am 01:53 Clear 69 20.6 68 20 96 96 Calm 30.07 1018 9 14 0.00 0.00
2:53 am 02:53 Clear 68 20 68 20 100 100 Calm 30.06 1018 10 16 0.00 0.00
3:53 am 03:53 Clear 67 19.4 67 19.4 100 100 Calm 30.05 1018 9 14 0.00 0.00
4:53 am 04:53 Clear 67 19.4 66 18.9 97 97 Calm 30.06 1018 10 16 0.00 0.00
5:53 am 05:53 Clear 66 18.9 66 18.9 100 100 Calm 30.08 1019 10 16 0.00 0.00
6:53 am 06:53 Sunny 66 18.9 66 18.9 100 100 Calm 30.09 1019 10 16 0.00 0.00
7:53 am 07:53 Sunny 68 20 68 20 100 100 Calm 30.10 1019 10 16 0.00 0.00
8:53 am 08:53 Sunny 70 21.1 68 20 93 93 W 3 6 30.11 1020 10 16 0.00 0.00
9:53 am 09:53 Sunny 73 22.8 69 20.6 87 87 Calm 30.11 1020 10 16 0.00 0.00
10:53 am 10:53 Sunny 78 25.6 70 21.1 76 76 Calm 30.10 1019 10 16 0.00 0.00
11:53 am 11:53 Sunny 82 27.8 67 19.4 60 60 NNW 3 6 30.10 1019 10 16 0.00 0.00
12:53 pm 12:53 Mostly Sunny 83 28.3 61 16.1 48 48 W 6 9 30.09 1019 10 16 0.00 0.00
1:53 pm 13:53 Sunny 84 28.9 64 17.8 51 51 W 5 7 30.07 1018 10 16 0.00 0.00
2:53 pm 14:53 Sunny 82 27.8 62 16.7 51 51 NNW 6 9 30.06 1018 10 16 0.00 0.00
3:53 pm 15:53 Sunny 83 28.3 61 16.1 48 48 NW 6 9 30.04 1017 10 16 0.00 0.00
4:53 pm 16:53 Sunny 83 28.3 60 15.6 46 46 W 6 9 30.03 1017 10 16 0.00 0.00
5:53 pm 17:53 Sunny 81 27.2 62 16.7 53 53 Calm 30.03 1017 10 16 0.00 0.00
6:53 pm 18:53 Sunny 77 25 70 21.1 79 79 SSW 8 13 30.02 1017 10 16 0.00 0.00
7:53 pm 19:53 Sunny 75 23.9 69 20.6 82 82 SSW 10 17 30.04 1017 10 16 0.00 0.00
8:53 pm 20:53 Clear 73 22.8 69 20.6 87 87 WSW 6 9 30.05 1018 10 16 0.00 0.00
9:53 pm 21:53 Clear 72 22.2 69 20.6 91 91 SW 5 7 30.05 1018 10 16 0.00 0.00
10:53 pm 22:53 Clear 71 21.7 69 20.6 94 94 SW 6 9 30.06 1018 10 16 0.00 0.00
11:23 pm 23:23 Mostly Clear 71 21.7 68 20 90 90 WSW 6 9 30.06 1018 10 16 0.00 0.00
11:53 pm 23:53 Clear 71 21.7 68 20 90 90 SSW 5 7 30.05 1018 10 16 0.00 0.00

Powered by AerisWeather